User: anonymous   Login
Location: Ostrava
(49.8330°N, 18.2830°E)
Time: 21:18:54
(UTC+01:00)
Language:

NOAA 19 - Orbit

View from above orbital plane
View from above orbital plane
View from above satellite
View from above satellite

Ground track
Ground track

The orbit data is extracted from the following two-line orbital elements,

1 33591U 09005A   16342.54173711  .00000153  00000-0  10801-3 0  9992
2 33591  99.0654 300.9386 0014981  90.8593 269.4295 14.12133361403607
Epoch (UTC): 07 December 2016 13:00:06
Eccentricity: 0.0014981
inclination: 99.0654°
perigee height: 841 km
apogee height: 863 km
right ascension of ascending node: 300.9386°
argument of perigee: 90.8593°
revolutions per day: 14.12133361
mean anomaly at epoch: 269.4295°
orbit number at epoch: 40360

The dashed part of the orbit path shows where the satellite is in the earth's shadow,  

DLR